View from above orbital plane
|
View from above satellite
|
Ground track
|
The orbit data is extracted from the following two-line orbital elements,
1 40906U 15049H 22177.94560123 .00004529 00000-0 21819-3 0 9991
2 40906 97.4920 181.2825 0013009 333.8532 89.6418 15.19174784374365
Epoch (UTC): | 26 June 2022 22:41:39 |
Eccentricity: | 0.0013009 |
inclination: | 97.4920° |
perigee height: | 499 km |
apogee height: | 517 km |
right ascension of ascending node: | 181.2825° |
argument of perigee: | 333.8532° |
revolutions per day: | 15.19174784 |
mean anomaly at epoch: | 89.6418° |
orbit number at epoch: | 37436 |
The dashed part of the orbit path shows where the satellite is in the earth's shadow,
|
|